Flag for Germany Weather past 2 weeks in Celle, Lower Saxony, Germany

Now
48 °F

Scattered clouds.


Feels Like: 42 °F
Forecast: 42 / 68 °F
Wind: 16 mph from West

Location: Celle Airport

Current Time: May 30, 2015 at 8:53:04 AM

Latest Report: May 30, 2015 at 7:20 AM


Visibility: N/A

Pressure: 29.77 "Hg

Humidity: 82%

Dew point: 43 °F

Location of CelleLocation

Historic Weather in Celle — Graph

°F

Celle temperature yesterday

Maximum temperature yesterday: 64 °F (at 5:20 PM)
Minimum temperature yesterday: 41 °F (at 4:20 AM)
Average temperature yesterday: 55 °F

Past Weeks' High & Low Weather Summary

 TemperatureHumidityPressure
High68 °F (May 18, 5:00 PM)100% (May 24, 5:20 AM)30.33 "Hg (May 24, 5:20 AM)
Low37 °F (May 16, 3:20 AM)32% (May 20, 4:20 PM)29.59 "Hg (May 18, 9:20 PM)
Average53 °F68%30.02 "Hg
* Reported May 15 7:20 AM — May 30 7:20 AM, Celle, Weather by CustomWeather, © 2015

Note: Actual official high and low records may vary slightly from our data, if they occured in-between our weather recording intervals... More about our weather records

Advertising

Celle weather history for previous 24 hours

 ConditionsComfort  
Time TempWeatherWind HumidityBarometerVisibility
7:20 AM
Sat, May 30
48 °FScattered clouds.16 mph82%29.77 "HgN/A
6:20 AM48 °FPartly sunny.13 mph87%29.77 "HgN/A
5:20 AM48 °FPassing clouds.12 mph87%29.74 "HgN/A
4:20 AM48 °FPassing clouds.14 mph87%29.74 "HgN/A
3:20 AM48 °FPartly cloudy.12 mph87%29.71 "HgN/A
2:20 AM48 °FLight rain. Overcast.12 mph87%29.71 "HgN/A
1:20 AM50 °FLight rain. Overcast.14 mph82%29.71 "HgN/A
12:20 AM57 °FLight rain. Overcast.7 mph67%29.68 "HgN/A
11:20 PM
Fri, May 29
57 °FPassing clouds.7 mph72%29.68 "HgN/A
10:20 PM59 °FPartly sunny.6 mph59%29.68 "HgN/A
9:20 PM61 °FBroken clouds.6 mph52%29.68 "HgN/A
8:20 PM61 °FBroken clouds.6 mph48%29.68 "HgN/A
7:20 PM63 °FBroken clouds.17 mph42%29.71 "HgN/A
6:20 PM64 °FBroken clouds.20 mph43%29.71 "HgN/A
5:20 PM64 °FBroken clouds.17 mph43%29.71 "HgN/A
4:20 PM63 °FPartly sunny.9 mph56%29.74 "HgN/A
3:20 PM63 °FBroken clouds.10 mph52%29.77 "HgN/A
2:20 PM61 °FMostly cloudy.10 mph55%29.80 "HgN/A
1:20 PM61 °FMore clouds than sun.8 mph48%29.83 "HgN/A
12:20 PM61 °FOvercast.9 mph48%29.83 "HgN/A
11:20 AM59 °FBroken clouds.9 mph48%29.86 "HgN/A
10:20 AM57 °FPartly sunny.8 mph51%29.89 "HgN/A
9:20 AM55 °FPartly sunny.7 mph63%29.89 "HgN/A
8:20 AM52 °FPartly sunny.6 mph77%29.92 "HgN/A
Weather by CustomWeather, © 2015

See weather overviewHow to use our weather pages